TimeCST,TemperatureF,Dew PointF,Humidity,Sea Level PressureIn,VisibilityMPH,Wind Direction,Wind SpeedMPH,Gust SpeedMPH,PrecipitationIn,Events,Conditions,WindDirDegrees,DateUTC
12:55 AM,30.0,28.0,92,30.30,5.0,Calm,Calm,-,N/A,,Clear,0,2013-01-10 06:55:00
1:55 AM,34.0,30.0,85,30.28,7.0,ESE,3.5,-,N/A,,Partly Cloudy,110,2013-01-10 07:55:00
2:55 AM,34.0,30.0,85,30.25,7.0,East,4.6,-,N/A,,Clear,80,2013-01-10 08:55:00
3:55 AM,35.1,30.0,82,30.21,8.0,East,5.8,-,N/A,,Mostly Cloudy,90,2013-01-10 09:55:00
4:55 AM,36.0,28.9,76,30.16,9.0,East,8.1,-,N/A,,Overcast,90,2013-01-10 10:55:00
5:55 AM,37.0,28.9,73,30.11,10.0,East,9.2,-,N/A,,Overcast,90,2013-01-10 11:55:00
6:28 AM,37.4,30.2,75,30.07,9.0,ESE,12.7,-,0.00,Rain,Light Rain,110,2013-01-10 12:28:00
6:52 AM,37.4,30.2,75,30.07,5.0,ESE,11.5,-,0.00,Rain,Light Rain,110,2013-01-10 12:52:00
6:55 AM,36.0,30.9,82,30.10,4.0,ESE,12.7,-,0.00,Rain,Light Rain,110,2013-01-10 12:55:00
7:14 AM,35.6,33.8,93,30.06,2.0,East,12.7,-,0.01,Rain,Light Rain,100,2013-01-10 13:14:00
7:21 AM,35.6,33.8,93,30.06,3.0,East,11.5,-,0.01,Rain,Light Rain,100,2013-01-10 13:21:00
7:28 AM,35.6,33.8,93,30.05,2.5,East,12.7,-,0.01,Rain,Light Rain,100,2013-01-10 13:28:00
7:35 AM,35.6,33.8,93,30.05,1.8,ESE,12.7,-,0.01,Rain,Light Rain,110,2013-01-10 13:35:00
7:42 AM,35.6,33.8,93,30.05,2.5,East,10.4,-,0.01,Rain,Light Rain,100,2013-01-10 13:42:00
7:55 AM,35.1,34.0,96,30.07,1.8,East,11.5,-,0.02,Rain,Light Rain,100,2013-01-10 13:55:00
7:59 AM,35.6,33.8,93,30.03,1.2,East,12.7,-,0.00,Rain,Light Rain,100,2013-01-10 13:59:00
8:21 AM,35.6,33.8,93,30.03,0.5,ESE,10.4,-,0.00,Fog,Fog,110,2013-01-10 14:21:00
8:41 AM,35.6,35.6,100,30.02,1.0,ESE,9.2,-,0.01,Rain,Light Rain,110,2013-01-10 14:41:00
8:55 AM,36.0,35.1,97,30.05,0.8,ESE,9.2,-,0.01,Rain,Light Rain,110,2013-01-10 14:55:00
9:40 AM,35.6,35.6,100,29.99,1.5,East,9.2,-,0.06,Rain,Light Rain,100,2013-01-10 15:40:00
9:55 AM,36.0,35.1,97,30.02,1.5,ESE,8.1,-,0.06,Rain,Light Rain,110,2013-01-10 15:55:00
10:16 AM,37.4,35.6,93,30.00,1.0,SE,8.1,-,N/A,Rain,Rain,140,2013-01-10 16:16:00
10:29 AM,37.4,35.6,93,29.99,0.8,SE,6.9,-,0.09,Rain,Heavy Rain,130,2013-01-10 16:29:00
10:42 AM,37.4,35.6,93,29.98,1.0,ESE,6.9,-,0.15,Rain,Rain,120,2013-01-10 16:42:00
10:55 AM,37.0,37.0,100,30.00,0.8,East,4.6,-,0.17,Rain,Rain,100,2013-01-10 16:55:00
11:24 AM,37.4,35.6,93,29.94,1.0,East,4.6,-,0.08,Rain,Light Rain,90,2013-01-10 17:24:00
11:32 AM,37.4,35.6,93,29.94,1.8,East,4.6,-,0.09,Rain,Light Rain,100,2013-01-10 17:32:00
11:42 AM,37.4,35.6,93,29.93,2.0,East,3.5,-,N/A,Rain,Light Rain,90,2013-01-10 17:42:00
11:55 AM,37.4,37.4,100,29.91,3.0,East,4.6,-,N/A,Rain,Light Rain,100,2013-01-10 17:55:00
12:42 PM,37.4,37.4,100,29.88,2.0,ESE,5.8,-,N/A,,Overcast,110,2013-01-10 18:42:00
12:47 PM,37.4,37.4,100,29.88,1.5,East,5.8,-,0.00,,Overcast,100,2013-01-10 18:47:00
12:55 PM,37.9,37.0,97,29.90,1.2,East,4.6,-,0.00,,Overcast,100,2013-01-10 18:55:00
1:12 PM,37.4,37.4,100,29.86,1.5,East,3.5,-,0.00,,Overcast,100,2013-01-10 19:12:00
1:23 PM,39.2,37.4,93,29.85,1.8,Calm,Calm,-,0.00,,Overcast,0,2013-01-10 19:23:00
1:30 PM,37.4,37.4,100,29.85,2.5,Calm,Calm,-,0.00,,Overcast,0,2013-01-10 19:30:00
1:38 PM,39.2,37.4,93,29.85,3.0,ESE,3.5,-,0.00,,Overcast,110,2013-01-10 19:38:00
1:48 PM,39.2,37.4,93,29.83,2.5,ESE,4.6,-,0.00,,Overcast,110,2013-01-10 19:48:00
1:55 PM,39.0,37.9,96,29.86,2.5,ESE,4.6,-,0.00,,Overcast,110,2013-01-10 19:55:00
2:20 PM,39.2,37.4,93,29.83,1.5,SSE,8.1,-,N/A,,Overcast,150,2013-01-10 20:20:00
2:28 PM,39.2,37.4,93,29.82,1.0,SE,6.9,-,N/A,,Overcast,140,2013-01-10 20:28:00
2:35 PM,39.2,37.4,93,29.82,0.8,SE,6.9,-,N/A,,Overcast,140,2013-01-10 20:35:00
2:55 PM,39.9,39.9,100,29.85,1.0,SE,5.8,-,0.01,Rain,Light Rain,140,2013-01-10 20:55:00
3:06 PM,39.2,39.2,100,29.83,1.5,SE,9.2,-,0.00,,Overcast,140,2013-01-10 21:06:00
3:16 PM,39.2,39.2,100,29.82,2.0,SE,6.9,-,0.00,,Overcast,140,2013-01-10 21:16:00
3:28 PM,39.2,39.2,100,29.81,3.0,SSE,3.5,-,0.00,,Overcast,150,2013-01-10 21:28:00
3:53 PM,41.0,39.2,93,29.80,2.0,Calm,Calm,-,0.00,,Overcast,0,2013-01-10 21:53:00
3:55 PM,41.0,39.0,93,29.82,2.0,Calm,Calm,-,0.00,,Overcast,0,2013-01-10 21:55:00
4:00 PM,39.2,39.2,100,29.79,1.2,Calm,Calm,-,N/A,,Overcast,0,2013-01-10 22:00:00
4:10 PM,39.2,39.2,100,29.80,0.5,Calm,Calm,-,N/A,Fog,Fog,0,2013-01-10 22:10:00
4:55 PM,39.9,39.0,97,29.79,0.2,Calm,Calm,-,N/A,Fog,Fog,0,2013-01-10 22:55:00
5:55 PM,37.9,37.9,100,29.79,0.2,ESE,3.5,-,N/A,Fog,Fog,110,2013-01-10 23:55:00
6:55 PM,39.0,39.0,100,29.80,0.2,South,4.6,-,N/A,Fog,Fog,190,2013-01-11 00:55:00
7:21 PM,39.2,39.2,100,29.77,1.0,South,5.8,-,N/A,,Overcast,190,2013-01-11 01:21:00
7:27 PM,39.2,39.2,100,29.77,1.0,SSW,6.9,-,N/A,,Overcast,200,2013-01-11 01:27:00
7:43 PM,39.2,39.2,100,29.75,1.2,South,4.6,-,0.01,,Overcast,170,2013-01-11 01:43:00
7:52 PM,39.2,39.2,100,29.76,1.8,SSW,5.8,-,0.01,,Overcast,210,2013-01-11 01:52:00
7:55 PM,39.9,39.0,97,29.78,2.0,SSW,6.9,-,0.01,,Overcast,200,2013-01-11 01:55:00
8:03 PM,39.2,39.2,100,29.76,3.0,SSW,6.9,-,N/A,,Overcast,200,2013-01-11 02:03:00
8:22 PM,39.2,39.2,100,29.74,1.8,SSE,5.8,-,N/A,,Overcast,160,2013-01-11 02:22:00
8:24 PM,39.2,39.2,100,29.74,1.2,South,5.8,-,N/A,,Overcast,170,2013-01-11 02:24:00
8:30 PM,39.2,39.2,100,29.74,0.8,South,5.8,-,N/A,,Overcast,170,2013-01-11 02:30:00
8:38 PM,39.2,39.2,100,29.74,0.5,SSE,4.6,-,N/A,Fog,Fog,160,2013-01-11 02:38:00
8:48 PM,39.2,39.2,100,29.75,0.2,South,4.6,-,N/A,Fog,Fog,180,2013-01-11 02:48:00
8:55 PM,39.9,39.0,97,29.76,0.2,South,3.5,-,N/A,Fog,Fog,170,2013-01-11 02:55:00
9:03 PM,39.2,39.2,100,29.74,0.2,South,4.6,-,N/A,Fog,Fog,170,2013-01-11 03:03:00
9:55 PM,39.9,39.9,100,29.72,0.2,South,5.8,-,N/A,Fog,Fog,170,2013-01-11 03:55:00
10:12 PM,39.2,37.4,93,29.69,0.2,SSE,6.9,-,N/A,Fog,Fog,150,2013-01-11 04:12:00
10:55 PM,39.0,37.9,96,29.69,0.2,SE,9.2,-,N/A,Fog,Fog,140,2013-01-11 04:55:00
11:55 PM,39.9,39.9,100,29.70,0.2,South,5.8,-,N/A,Fog,Fog,190,2013-01-11 05:55:00